Location: *
(40.4270°N, 9.4940°E)
Time: 07:14:54
(UTC+02:00)

Daily predictions for brighter satellites

Satellite Brightness Start Highest point End
(mag) Time Altitude Azimuth Time Altitude Azimuth Time Altitude Azimuth
Cosmos 2237 Rocket 2.9 21:12:13 10° SW 21:17:45 59° WNW 21:23:20 10° NNE
Cosmos 1606 Rocket 3.6 21:13:33 10° N 21:18:02 78° E 21:22:25 10° S
Atlas Centaur 2 4.0 21:13:21 10° SSW 21:19:14 24° SSE 21:25:40 10° ESE
H-2A R/B 3.2 21:15:33 10° S 21:19:27 66° W 21:23:25 10° NNW
SL-24 R/B - RUBIN 2 4.2 21:14:22 10° SSW 21:19:41 84° ESE 21:25:48 10° NE
H-2A R/B 2.1 21:20:49 10° SSE 21:24:58 64° ENE 21:29:16 10° N
GEOS 3 Rocket 4.3 21:20:06 10° SSE 21:25:14 52° WSW 21:30:21 10° NW
Cosmos 2278 Rocket 2.9 21:20:13 10° NNW 21:25:45 55° WSW 21:31:16 10° S
COSMOS 2455 4.0 21:25:02 10° SSE 21:29:18 21° ESE 21:33:35 10° ENE
PSLV R/B 4.5 21:27:14 11° SE 21:29:36 25° ENE 21:32:14 10° NNE
SJ-11-01 4.3 21:28:36 10° SSE 21:33:15 83° ENE 21:37:57 10° N
Cosmos 1626 Rocket 4.4 21:30:07 10° SSE 21:34:04 32° E 21:38:01 10° NNE
YAOGAN 6 4.5 21:32:27 11° ESE 21:34:45 18° ENE 21:37:18 10° NNE
Nimbus 7 Rocket 4.5 21:30:11 10° NNE 21:36:04 58° ESE 21:41:52 10° S
ATLAS CENTAUR R/B 3.0 21:32:07 10° SW 21:36:54 48° NW 21:41:48 10° NNE
Cosmos 494 Rocket 3.9 21:34:06 10° SSW 21:39:12 80° ESE 21:44:20 10° NNE
CZ-2C R/B 1.8 21:37:06 10° S 21:39:17 37° W 21:41:29 10° NNW
Cosmos 2369 Rocket 4.2 21:36:23 10° NNE 21:39:46 16° NE 21:43:06 10° E
H-2A R/B 4.2 21:39:34 10° ENE 21:39:59 10° ENE 21:40:23 10° NE
Tsikada Rocket 4.5 21:36:05 10° SSE 21:42:04 43° E 21:48:03 10° NNE
SL-16 R/B 2.4 21:38:53 10° SSW 21:44:32 80° WNW 21:50:14 10° NNE
ARGOS 4.4 21:43:20 13° ESE 21:47:07 27° ENE 21:51:35 10° N
Abrixas rocket 2.5 21:45:50 10° NW 21:49:16 66° NNE 21:51:42 18° ESE
Cosmos 2228 3.0 21:45:28 10° N 21:49:53 73° E 21:53:54 12° SSE
Cosmos 2285 Rocket 4.1 21:46:05 10° NNW 21:52:26 85° WSW 21:58:33 11° SSE
SPOT 5 2.7 21:49:58 14° SSE 21:53:41 63° ENE 21:58:00 10° N
Cosmos 1939 Rocket 3.1 21:54:50 11° S 21:58:53 74° WSW 22:03:04 10° NNW
Aureole 2 Rocket 2.8 22:00:31 10° SSW 22:04:32 78° WNW 22:08:12 10° NNE
Cosmos 1464 Rocket 4.2 21:59:37 10° NNW 22:05:43 71° W 22:11:50 10° S
MetOp-B 4.2 22:03:36 18° SSE 22:07:39 68° ENE 22:12:59 10° N
UNK 4.2 22:03:27 10° NNE 22:08:51 70° ESE 22:14:29 10° S
PSLV R/B 3.8 22:05:48 10° SW 22:09:08 39° SSE 22:10:38 25° ESE
Cosmos 1302 Rocket 4.1 22:05:14 10° NNW 22:10:29 80° WSW 22:14:27 18° SSE
Cosmos 1666 3.2 22:07:38 10° NNW 22:11:31 61° W 22:14:41 14° S
Timation 1 Rocket 4.3 22:06:30 10° NNW 22:12:34 83° ENE 22:16:42 21° SSE
Cosmos 1603 3.6 22:07:44 10° SSW 22:13:18 69° ESE 22:18:53 10° NNE
ATLAS 3B R/B 3.7 22:08:49 16° SSE 22:13:24 28° ESE 22:19:37 10° NE
Lacrosse 5 rocket 3.6 22:10:15 10° W 22:13:37 27° NW 22:17:09 10° NNE
SeaSat 1 2.6 22:10:57 18° SSE 22:14:35 72° WSW 22:19:32 10° NNW
CZ-4B R/B 3.4 22:14:01 10° NNE 22:19:05 71° ESE 22:23:47 13° S
APEX 4.0 22:17:29 10° NNW 22:21:30 60° WSW 22:24:50 21° S
Terra 3.3 22:20:48 18° E 22:22:37 22° ENE 22:26:16 10° NNE
Cosmos 2034 Rocket 4.3 22:17:07 10° NNW 22:23:27 70° W 22:29:16 12° S
SL-08 RB Rocket 4.3 22:22:42 27° SE 22:24:39 43° ENE 22:28:58 10° N
CZ-4 SHROUD 4.5 22:23:16 18° SSW 22:25:12 37° W 22:28:10 10° NNW
USA 234 3.3 22:21:14 22° SE 22:25:43 90° NNE 22:32:19 10° NW
Cosmos 1634 Rocket 4.4 22:20:04 10° N 22:26:00 46° ENE 22:29:08 26° SE
Lacrosse 4 Rocket 3.5 22:29:54 12° ENE 22:29:54 12° ENE 22:30:31 10° ENE
Cosmos 1943 3.5 22:36:43 28° SSE 22:39:13 45° ESE 22:44:38 10° NE
Cosmos 1515 3.6 22:38:51 38° S 22:40:15 80° E 22:44:08 10° N
Milstar 3 Cent rocket 4.1 22:38:28 10° SW 22:40:50 12° SSW 22:41:46 12° SSW
Cosmos 1346 Rocket 3.5 22:40:58 34° E 22:40:59 34° E 22:44:34 10° NNE
BREEZE-M DEB (TANK) 2.8 22:39:05 10° WSW 22:42:38 50° NNW 22:43:57 19° NE
Envisat 4.2 22:39:02 12° SSW 22:43:17 36° W 22:47:59 10° NNW
Cosmos 1825 Rocket 3.6 22:42:03 38° SSE 22:43:32 62° E 22:47:56 10° NNE
Cosmos 1461 3.3 22:39:37 10° NW 22:43:49 55° WSW 22:45:08 37° S
Cosmos 407 Rocket 4.1 22:46:47 34° ESE 22:47:38 37° ESE 22:52:26 10° NE
Cosmos 1812 Rocket 4.1 22:44:42 10° NNW 22:48:59 53° W 22:51:12 26° SSW
Kosmos-1675 4.2 22:49:18 36° E 22:49:18 36° E 22:55:41 10° NE
USA 81 4.0 22:48:05 10° N 22:53:24 85° E 22:55:39 36° S
Cosmos 1943 Rocket 3.8 22:49:30 10° N 22:53:49 23° NE 22:56:10 18° E
YAOGAN 6 4.2 23:06:56 24° SW 23:08:07 29° W 23:11:27 10° NW
Cosmos 2346 Rocket 4.5 23:04:22 25° SSW 23:08:09 80° W 23:14:20 10° N
Atlas Centaur 2 3.5 23:00:44 10° WSW 23:08:09 39° S 23:10:13 35° SE
COSMOS 2455 3.3 23:08:45 10° SW 23:14:41 62° WNW 23:20:40 10° NNE
H-2A R/B 1.8 23:17:27 56° SSE 23:18:31 84° ENE 23:23:33 10° NNW
Cosmos 1766 3.3 23:16:27 10° N 23:20:19 67° ENE 23:20:19 67° ENE
Cosmos 1992 Rocket 4.3 23:18:48 10° NNW 23:23:55 57° WSW 23:25:16 43° SSW
Cosmos 2369 Rocket 2.1 23:18:52 10° NNW 23:24:34 85° WSW 23:25:57 53° SSE
ARGOS 4.1 23:24:51 28° SSW 23:27:07 41° W 23:32:14 10° NNW
Cosmos 1953 Rocket 4.0 23:27:02 44° SW 23:28:05 57° W 23:32:28 10° N
CZ-4C R/B 4.4 23:27:56 37° SW 23:28:42 41° W 23:32:39 10° NNW
DMSP B5D2-2 4.0 23:30:23 10° NNE 23:35:42 84° WNW 23:37:03 52° SSW
Spot 4 3.7 23:37:54 71° SSW 23:38:21 81° WSW 23:43:10 10° NNW
Cosmos 1190 Rocket 4.5 23:36:49 30° SW 23:39:18 59° WNW 23:44:34 10° NNE
COSMOS 2406 3.9 23:44:35 39° E 23:44:35 39° E 23:49:22 10° NE
Cosmos 2263 4.1 23:39:45 10° NNW 23:45:23 81° WSW 23:46:15 64° S
IGS 5A 3.9 23:47:18 52° W 23:47:18 52° W 23:51:15 10° NNW
ISS -0.3 23:53:26 11° NE 23:53:26 11° NE 23:53:38 10° NE
Cosmos 1953 2.8 23:47:13 10° N 23:50:29 57° N 23:50:29 57° N
Cosmos-2242 3.1 23:50:18 10° N 23:54:26 73° NW 23:54:26 73° NW
